Date,Time,Wetness (Wet Dry or Ice),Wind Speed (m/s),Temperature (C),Humidity (%),Pressure (mb),Radiation (W/m^2)
2024-04-23,10:15:00,DRY,0.95,12.65,9.0,770.00,759.5
2024-04-23,10:20:00,DRY,0.87,13.03,9.3,770.00,743.7
2024-04-23,10:25:00,DRY,1.45,13.45,9.0,770.00,798.0
2024-04-23,10:30:00,DRY,1.30,13.57,8.3,771.00,798.0
2024-04-23,10:35:00,DRY,2.50,13.50,9.0,771.00,798.0
2024-04-23,10:40:00,DRY,0.77,13.27,22.7,771.00,798.0
2024-04-23,10:45:00,DRY,1.00,13.20,29.5,771.00,798.0
2024-04-23,10:50:00,DRY,2.17,13.33,20.3,771.00,798.0
2024-04-23,10:55:00,DRY,0.35,13.85,15.5,771.00,798.0
2024-04-23,11:00:00,DRY,1.13,13.97,14.7,771.00,798.0
2024-04-23,11:05:00,DRY,1.25,14.10,16.5,771.00,798.0
2024-04-23,11:10:00,DRY,1.90,13.90,19.7,771.00,798.0
2024-04-23,11:15:00,DRY,1.85,13.80,19.5,771.00,798.0
2024-04-23,11:20:00,DRY,1.43,13.63,19.0,771.00,798.0
2024-04-23,11:25:00,DRY,2.00,13.65,21.0,771.00,798.0
2024-04-23,11:30:00,DRY,3.33,13.83,16.7,771.00,798.0
2024-04-23,11:35:00,DRY,1.50,13.70,16.5,771.00,798.0
2024-04-23,11:40:00,DRY,0.67,13.73,14.7,771.00,798.0
2024-04-23,11:45:00,DRY,1.00,13.95,16.0,771.00,798.0
2024-04-23,11:50:00,DRY,1.67,14.00,17.7,771.00,798.0
2024-04-23,11:55:00,DRY,1.60,13.65,18.0,771.00,798.0
2024-04-23,12:00:00,DRY,1.93,13.63,23.3,771.00,798.0
2024-04-23,12:05:00,DRY,1.80,13.65,39.0,771.00,798.0
2024-04-23,12:10:00,DRY,1.63,13.80,41.3,771.00,798.0
2024-04-23,12:15:00,DRY,1.55,13.75,39.0,771.00,798.0
2024-04-23,12:20:00,DRY,2.10,13.93,40.0,771.00,798.0
2024-04-23,12:25:00,DRY,1.75,13.00,44.5,771.00,798.0
2024-04-23,12:30:00,DRY,1.37,13.27,44.3,771.00,798.0
2024-04-23,12:35:00,DRY,2.50,14.20,44.0,771.00,798.0
2024-04-23,12:40:00,DRY,3.47,13.63,41.3,771.00,798.0
2024-04-23,12:45:00,DRY,2.30,13.00,38.5,771.00,798.0
2024-04-23,12:50:00,DRY,2.23,13.17,36.0,771.00,798.0
2024-04-23,12:55:00,DRY,2.85,13.55,39.0,771.00,798.0
2024-04-23,13:00:00,DRY,1.60,13.20,38.0,771.00,798.0
2024-04-23,13:05:00,DRY,1.90,13.05,36.0,771.00,798.0
2024-04-23,13:10:00,DRY,2.80,12.80,37.5,771.00,798.0
2024-04-23,13:15:00,DRY,2.25,13.90,37.5,771.00,798.0
2024-04-23,13:20:00,DRY,1.85,14.05,37.5,771.00,798.0
2024-04-23,13:25:00,DRY,1.75,13.80,38.0,771.00,798.0
2024-04-23,13:30:00,DRY,2.75,13.80,37.0,771.00,798.0
2024-04-23,13:35:00,DRY,1.10,13.60,37.0,771.00,798.0
2024-04-23,13:40:00,DRY,1.20,13.30,37.5,771.00,798.0
2024-04-23,13:45:00,DRY,1.55,13.60,36.0,771.00,798.0
2024-04-23,13:50:00,DRY,2.10,14.50,32.3,771.00,798.0
2024-04-23,13:55:00,DRY,1.80,14.00,30.5,771.00,798.0
2024-04-23,14:00:00,DRY,2.60,13.60,31.3,771.00,798.0
2024-04-23,14:05:00,DRY,2.50,13.65,30.5,771.00,798.0
2024-04-23,14:10:00,DRY,2.80,13.60,32.0,771.00,798.0
2024-04-23,14:15:00,DRY,2.00,13.25,30.0,771.00,798.0
2024-04-23,14:20:00,DRY,2.33,13.10,30.0,770.67,798.0
2024-04-23,14:25:00,DRY,2.55,13.75,29.5,770.00,798.0
2024-04-23,14:30:00,DRY,1.87,13.97,31.0,770.67,798.0
2024-04-23,14:35:00,DRY,1.70,14.20,32.5,771.00,798.0
2024-04-23,14:40:00,DRY,2.35,15.35,31.5,771.00,798.0
2024-04-23,14:45:00,DRY,2.60,14.40,33.5,770.00,798.0
2024-04-23,14:50:00,DRY,2.67,13.80,33.0,770.67,798.0
2024-04-23,14:55:00,DRY,2.55,13.60,33.0,771.00,798.0
2024-04-23,15:00:00,DRY,1.33,13.57,34.7,771.00,798.0
2024-04-23,15:05:00,DRY,3.20,14.05,33.5,771.00,798.0
2024-04-23,15:10:00,DRY,2.00,13.03,36.7,771.00,798.0
2024-04-23,15:15:00,DRY,0.80,13.10,37.0,771.00,798.0
2024-04-23,15:20:00,DRY,1.83,13.73,33.7,770.67,798.0
2024-04-23,15:25:00,DRY,1.65,13.75,38.5,771.00,798.0
2024-04-23,15:30:00,DRY,1.73,14.10,37.3,770.33,798.0
2024-04-23,15:35:00,DRY,1.05,13.70,40.0,770.00,798.0
2024-04-23,15:40:00,DRY,0.65,14.00,41.5,770.00,798.0
2024-04-23,15:45:00,DRY,2.15,14.45,38.5,770.50,798.0
2024-04-23,15:50:00,DRY,2.67,13.67,45.0,770.00,798.0
2024-04-23,15:55:00,DRY,2.20,13.15,47.0,770.00,798.0
2024-04-23,16:00:00,DRY,2.57,13.47,41.0,770.00,795.7
2024-04-23,16:05:00,DRY,2.45,14.00,37.0,770.00,783.0
2024-04-23,16:10:00,DRY,2.40,13.40,38.3,770.00,766.7
2024-04-23,16:15:00,DRY,2.05,12.90,39.5,770.00,752.0
2024-04-23,16:20:00,DRY,2.80,12.83,38.3,770.00,735.7
2024-04-23,16:25:00,DRY,1.55,12.75,33.5,770.00,719.5
2024-04-23,16:30:00,DRY,1.20,13.20,35.0,770.00,701.7
2024-04-23,16:35:00,DRY,2.25,13.20,34.0,770.50,684.0
2024-04-23,16:40:00,DRY,2.80,13.33,32.3,770.33,666.3
2024-04-23,16:45:00,DRY,2.00,12.95,32.5,770.00,649.5
2024-04-23,16:50:00,DRY,2.30,13.17,32.7,771.00,630.7
2024-04-23,16:55:00,DRY,2.90,13.10,32.0,770.00,609.0
2024-04-23,17:00:00,DRY,2.10,13.60,30.0,770.33,597.0
2024-04-23,17:05:00,DRY,1.50,13.10,32.0,771.00,581.0
2024-04-23,17:10:00,DRY,1.77,13.13,28.3,770.00,550.7
2024-04-23,17:15:00,DRY,1.30,13.45,25.0,770.50,529.5
2024-04-23,17:20:00,DRY,1.40,13.40,25.5,770.00,504.5
2024-04-23,17:25:00,DRY,0.65,13.30,23.5,771.00,487.0
2024-04-23,17:30:00,DRY,0.93,13.40,24.3,771.00,467.3
2024-04-23,17:35:00,DRY,1.05,13.05,24.5,771.00,450.0
2024-04-23,17:40:00,DRY,0.80,13.20,24.0,771.00,429.3
2024-04-23,17:45:00,DRY,0.60,13.55,24.0,771.00,408.0
2024-04-23,17:50:00,DRY,0.63,13.07,24.7,771.00,389.0
2024-04-23,17:55:00,DRY,1.35,13.00,26.0,771.00,371.5
2024-04-23,18:00:00,DRY,1.27,12.70,27.7,771.00,352.3
2024-04-23,18:05:00,DRY,0.70,13.05,26.5,771.00,326.5
2024-04-23,18:10:00,DRY,1.23,13.43,24.7,771.00,299.3
2024-04-23,18:15:00,DRY,1.50,12.50,26.5,771.00,108.0
2024-04-23,18:20:00,DRY,0.83,11.90,28.0,771.00,219.7
2024-04-23,18:25:00,DRY,1.20,12.20,15.0,771.00,315.5
2024-04-23,18:30:00,DRY,0.60,12.50,20.0,771.00,244.7
2024-04-23,18:35:00,DRY,0.90,12.50,25.0,771.00,207.0
2024-04-23,18:40:00,DRY,0.57,12.23,14.0,771.00,185.7
2024-04-23,18:45:00,DRY,1.90,12.90,11.0,771.00,97.5
2024-04-23,18:50:00,DRY,1.53,12.47,10.3,771.00,41.7
2024-04-23,18:55:00,DRY,1.55,12.10,11.0,771.00,38.5
2024-04-23,19:00:00,DRY,0.50,11.83,18.7,771.00,33.7
2024-04-23,19:05:00,DRY,0.60,11.35,24.0,771.00,23.5
2024-04-23,19:10:00,DRY,2.00,11.50,16.0,771.00,23.0
2024-04-23,19:15:00,DRY,1.00,11.70,16.0,771.00,21.5
2024-04-23,19:20:00,DRY,0.63,11.67,17.7,771.00,17.0
2024-04-23,19:25:00,DRY,0.75,11.45,20.5,771.00,13.5
2024-04-23,19:30:00,DRY,0.57,11.40,21.7,771.00,16.0
2024-04-23,19:35:00,DRY,0.45,11.40,23.5,771.00,7.5
2024-04-23,19:40:00,DRY,0.30,11.40,22.0,771.00,1.7
2024-04-23,19:45:00,DRY,0.65,11.35,22.0,771.00,0.0
2024-04-23,19:50:00,DRY,1.37,11.20,20.7,771.00,0.0
2024-04-23,19:55:00,DRY,1.20,11.15,21.0,771.00,0.0
2024-04-23,20:00:00,DRY,2.30,11.13,20.7,771.00,0.0
2024-04-23,20:05:00,DRY,2.15,11.05,19.5,771.00,0.0
2024-04-23,20:10:00,DRY,2.40,10.77,17.3,771.00,0.0
2024-04-23,20:15:00,DRY,2.25,10.60,18.0,771.00,0.0
2024-04-23,20:20:00,DRY,1.73,10.57,17.7,771.00,0.0
2024-04-23,20:25:00,DRY,1.95,10.55,19.5,771.00,0.0
2024-04-23,20:30:00,DRY,0.73,10.63,19.7,771.00,0.0
2024-04-23,20:35:00,DRY,0.70,10.60,18.0,771.00,0.0
2024-04-23,20:40:00,DRY,1.83,10.83,15.7,771.00,0.0
2024-04-23,20:45:00,DRY,1.80,11.30,14.0,771.00,0.0
2024-04-23,20:50:00,DRY,2.70,11.23,14.3,771.00,0.0
2024-04-23,20:55:00,DRY,2.95,11.20,13.5,771.00,0.0
2024-04-23,21:00:00,DRY,2.80,11.20,13.3,771.33,0.0
2024-04-23,21:05:00,DRY,2.50,11.30,10.0,771.50,0.0
2024-04-23,21:10:00,DRY,3.13,11.37,10.7,772.00,0.0
2024-04-23,21:15:00,DRY,3.20,11.25,10.5,772.00,0.0
2024-04-23,21:20:00,DRY,3.05,11.10,10.0,772.00,0.0
2024-04-23,21:25:00,DRY,3.05,11.15,8.5,772.00,0.0
2024-04-23,21:30:00,DRY,2.80,11.03,7.3,772.00,0.0
2024-04-23,21:35:00,DRY,1.85,10.95,9.5,772.00,0.0
2024-04-23,21:40:00,DRY,1.33,11.00,10.0,772.00,0.0
2024-04-23,21:45:00,DRY,1.00,11.25,11.5,772.00,0.0
2024-04-23,21:50:00,DRY,1.27,10.93,12.3,772.00,0.0
2024-04-23,21:55:00,DRY,1.15,10.85,13.5,772.00,0.0
2024-04-23,22:00:00,DRY,1.00,10.55,14.0,772.00,0.0
2024-04-23,22:05:00,DRY,1.90,10.50,14.0,772.00,0.0
2024-04-23,22:10:00,DRY,1.87,10.83,11.3,772.00,0.0
2024-04-23,22:15:00,DRY,1.05,10.75,12.5,772.00,0.0
2024-04-23,22:20:00,DRY,1.80,9.97,22.7,772.00,0.0
2024-04-23,22:25:00,DRY,0.60,9.50,21.0,772.00,0.0
2024-04-23,22:30:00,DRY,2.83,9.53,13.0,771.33,0.0
2024-04-23,22:35:00,DRY,1.90,10.55,7.0,772.00,0.0
2024-04-23,22:40:00,DRY,3.75,10.80,10.0,772.00,0.0
2024-04-23,22:45:00,DRY,4.25,10.85,8.5,772.00,0.0
2024-04-23,22:50:00,DRY,4.03,10.70,9.3,772.00,0.0
2024-04-23,22:55:00,DRY,4.30,10.90,8.0,772.00,0.0
2024-04-23,23:00:00,DRY,3.05,11.00,7.5,772.00,0.0
2024-04-23,23:05:00,DRY,4.00,11.00,8.0,772.00,0.0
2024-04-23,23:10:00,DRY,3.50,10.93,8.0,772.00,0.0
2024-04-23,23:15:00,DRY,4.25,10.80,8.0,772.00,0.0
2024-04-23,23:20:00,DRY,4.40,10.70,9.0,772.00,0.0
2024-04-23,23:25:00,DRY,4.75,10.70,9.0,772.00,0.0
2024-04-23,23:30:00,DRY,3.37,10.77,8.7,772.00,0.0
2024-04-23,23:35:00,DRY,2.65,10.75,8.5,772.00,0.0
2024-04-23,23:40:00,DRY,3.50,10.67,8.7,772.00,0.0
2024-04-23,23:45:00,DRY,3.00,10.80,8.0,772.00,0.0
2024-04-23,23:50:00,DRY,2.80,10.77,9.0,772.00,0.0
2024-04-23,23:55:00,DRY,2.55,11.05,9.0,772.00,0.0
2024-04-24,00:00:00,DRY,2.37,11.17,9.7,771.33,0.0
2024-04-24,00:05:00,DRY,3.25,11.40,10.0,771.50,0.0
2024-04-24,00:10:00,DRY,3.07,11.33,9.0,772.00,0.0
2024-04-24,00:15:00,DRY,2.95,11.10,8.0,772.00,0.0
2024-04-24,00:20:00,DRY,3.75,10.85,8.0,771.00,0.0
2024-04-24,00:25:00,DRY,3.80,10.75,8.0,771.00,0.0
2024-04-24,00:30:00,DRY,3.70,10.70,7.3,771.00,0.0
2024-04-24,00:35:00,DRY,3.30,10.70,7.0,771.00,0.0
2024-04-24,00:40:00,DRY,2.50,10.63,8.0,771.00,0.0
2024-04-24,00:45:00,DRY,3.15,10.80,7.5,771.00,0.0
2024-04-24,00:50:00,DRY,3.27,10.87,7.0,771.00,0.0
2024-04-24,00:55:00,DRY,3.30,10.80,7.0,771.00,0.0
2024-04-24,01:00:00,DRY,3.63,10.53,7.7,771.00,0.0
2024-04-24,01:05:00,DRY,3.30,10.50,8.0,771.00,0.0
2024-04-24,01:10:00,DRY,4.07,10.37,8.0,771.00,0.0
2024-04-24,01:15:00,DRY,3.35,10.25,8.5,771.00,0.0
2024-04-24,01:20:00,DRY,3.13,10.10,8.7,771.00,0.0
2024-04-24,01:25:00,DRY,2.65,10.15,9.0,771.00,0.0
2024-04-24,01:30:00,DRY,2.27,9.97,8.3,771.00,0.0
2024-04-24,01:35:00,DRY,1.50,9.95,9.5,771.00,0.0
2024-04-24,01:40:00,DRY,0.43,9.77,10.7,771.00,0.0
2024-04-24,01:45:00,DRY,0.70,9.55,10.0,771.00,0.0
2024-04-24,01:50:00,DRY,0.63,9.13,12.0,771.00,0.0
2024-04-24,01:55:00,DRY,0.35,8.95,11.5,771.00,0.0
2024-04-24,02:00:00,DRY,1.20,8.73,12.7,771.00,0.0
2024-04-24,02:05:00,DRY,2.15,8.95,11.5,771.00,0.0
2024-04-24,02:10:00,DRY,3.23,8.93,12.0,771.00,0.0
2024-04-24,02:15:00,DRY,3.40,9.05,12.0,771.00,0.0
2024-04-24,02:20:00,DRY,3.83,9.23,10.7,771.00,0.0
2024-04-24,02:25:00,DRY,3.75,9.35,9.5,771.00,0.0
2024-04-24,02:30:00,DRY,2.80,9.67,8.3,771.00,0.0
2024-04-24,02:35:00,DRY,3.25,9.75,9.0,771.00,0.0
2024-04-24,02:40:00,DRY,3.77,10.13,9.7,771.00,0.0
2024-04-24,02:45:00,DRY,3.85,10.60,9.5,771.00,0.0
2024-04-24,02:50:00,DRY,4.45,10.65,9.0,771.00,0.0
2024-04-24,02:55:00,DRY,3.70,10.80,9.0,770.00,0.0
2024-04-24,03:00:00,DRY,3.27,10.67,9.0,771.00,0.0
2024-04-24,03:05:00,DRY,4.50,10.45,9.0,771.00,0.0
2024-04-24,03:10:00,DRY,3.40,10.40,9.0,771.00,0.0
2024-04-24,03:15:00,DRY,3.20,10.50,9.0,771.00,0.0
2024-04-24,03:20:00,DRY,3.47,10.50,9.0,771.00,0.0
2024-04-24,03:25:00,DRY,3.65,10.55,9.0,771.00,0.0
2024-04-24,03:30:00,DRY,2.03,10.43,9.0,771.00,0.0
2024-04-24,03:35:00,DRY,0.40,10.30,9.0,771.00,0.0
2024-04-24,03:40:00,DRY,1.10,10.20,9.0,771.00,0.0
2024-04-24,03:45:00,DRY,0.75,10.20,9.0,771.00,0.0
2024-04-24,03:50:00,DRY,1.07,10.17,9.3,771.00,0.0
2024-04-24,03:55:00,DRY,1.65,10.05,10.0,771.00,0.0
2024-04-24,04:00:00,DRY,1.43,10.13,9.0,771.00,0.0
2024-04-24,04:05:00,DRY,1.40,10.10,9.0,771.00,0.0
2024-04-24,04:10:00,DRY,0.80,10.07,8.0,771.00,0.0
2024-04-24,04:15:00,DRY,1.70,9.90,9.5,771.00,0.0
2024-04-24,04:20:00,DRY,1.37,9.53,9.0,771.00,0.0
2024-04-24,04:25:00,DRY,1.70,9.60,8.0,771.00,0.0
2024-04-24,04:30:00,DRY,2.53,9.60,8.0,771.00,0.0
2024-04-24,04:35:00,DRY,2.35,9.50,8.0,770.50,0.0
2024-04-24,04:40:00,DRY,1.30,9.75,9.0,770.50,0.0
2024-04-24,04:45:00,DRY,1.25,9.90,9.0,770.50,0.0
2024-04-24,04:50:00,DRY,1.75,9.65,10.0,771.00,0.0
2024-04-24,04:55:00,DRY,1.95,9.80,9.5,771.00,0.0
2024-04-24,05:00:00,DRY,2.67,10.03,9.0,770.00,0.0
2024-04-24,05:05:00,DRY,2.70,9.90,10.0,770.50,0.0
2024-04-24,05:10:00,DRY,3.20,9.70,9.0,770.50,0.0
2024-04-24,05:15:00,DRY,2.45,9.65,9.0,770.00,0.0
2024-04-24,05:20:00,DRY,2.30,9.50,9.0,770.50,0.0
2024-04-24,05:25:00,DRY,2.65,9.30,10.0,770.50,0.0
2024-04-24,05:30:00,DRY,2.60,9.20,9.3,770.33,0.0
2024-04-24,05:35:00,DRY,2.00,9.30,9.0,771.00,0.0
2024-04-24,05:40:00,DRY,1.93,9.63,9.0,770.67,0.0
2024-04-24,05:45:00,DRY,2.00,9.90,9.0,771.00,0.0
2024-04-24,05:50:00,DRY,1.37,9.97,8.7,770.67,0.0
2024-04-24,05:55:00,DRY,2.10,9.80,9.0,771.00,0.0
2024-04-24,06:00:00,DRY,2.53,9.80,9.0,771.00,0.0
2024-04-24,06:05:00,DRY,2.35,9.90,9.0,771.00,0.0
2024-04-24,06:10:00,DRY,2.47,9.87,9.0,771.00,0.0
2024-04-24,06:15:00,DRY,1.80,9.80,9.0,771.00,0.0
2024-04-24,06:20:00,DRY,1.17,9.80,9.0,771.00,0.0
2024-04-24,06:25:00,DRY,0.90,9.90,9.0,771.00,0.0
2024-04-24,06:30:00,DRY,1.93,9.80,9.0,771.00,0.0
2024-04-24,06:35:00,DRY,2.05,9.80,9.0,771.00,1.5
2024-04-24,06:40:00,DRY,1.47,9.97,8.3,771.00,5.3
2024-04-24,06:45:00,DRY,1.25,9.90,9.0,771.00,5.5
2024-04-24,06:50:00,DRY,1.93,9.83,9.0,771.00,32.7
2024-04-24,06:55:00,DRY,1.95,9.65,9.0,771.00,50.0
2024-04-24,07:00:00,DRY,1.77,9.50,8.7,771.00,36.3
2024-04-24,07:05:00,DRY,1.90,9.80,7.5,771.00,88.5
2024-04-24,07:10:00,DRY,2.00,9.97,8.7,771.00,114.3
2024-04-24,07:15:00,DRY,2.20,10.10,9.0,771.00,111.0
2024-04-24,07:20:00,DRY,2.03,10.17,8.7,771.00,201.7
2024-04-24,07:25:00,DRY,1.40,10.75,7.5,771.00,236.5
2024-04-24,07:30:00,DRY,1.17,11.17,8.0,771.00,185.0
2024-04-24,07:35:00,DRY,0.90,11.00,8.5,771.00,62.5
2024-04-24,07:40:00,DRY,1.37,10.70,9.3,771.00,87.3
2024-04-24,07:45:00,DRY,1.70,10.50,9.0,771.00,119.0
2024-04-24,07:50:00,DRY,2.40,10.53,9.0,771.00,144.0
2024-04-24,07:55:00,DRY,2.15,10.40,8.5,772.00,121.0
2024-04-24,08:00:00,DRY,1.13,10.63,8.7,771.33,137.3
2024-04-24,08:05:00,DRY,1.60,10.70,9.0,772.00,126.0
2024-04-24,08:10:00,DRY,3.10,10.73,9.3,772.00,211.7
2024-04-24,08:15:00,DRY,2.60,10.85,9.0,772.00,224.0
2024-04-24,08:20:00,DRY,2.70,11.17,9.0,772.00,198.7
2024-04-24,08:25:00,DRY,1.15,11.45,8.5,772.00,331.0
2024-04-24,08:30:00,DRY,0.40,11.55,8.0,772.00,294.5
2024-04-24,08:35:00,DRY,0.20,11.70,9.0,772.00,246.0
2024-04-24,08:40:00,DRY,1.17,11.90,10.3,772.00,466.0
2024-04-24,08:45:00,DRY,0.80,12.00,11.0,772.00,578.5
2024-04-24,08:50:00,DRY,1.20,12.30,9.5,772.00,352.5
2024-04-24,08:55:00,DRY,1.30,11.85,8.5,772.00,529.5
2024-04-24,09:00:00,DRY,1.37,11.63,8.3,772.00,557.7
2024-04-24,09:05:00,DRY,1.15,11.90,8.5,772.00,612.5
2024-04-24,09:10:00,DRY,0.80,12.10,9.3,772.00,629.3
2024-04-24,09:15:00,DRY,0.40,12.50,10.5,772.00,537.0
2024-04-24,09:20:00,DRY,1.37,12.70,10.0,772.00,491.3
2024-04-24,09:25:00,DRY,0.90,12.70,10.0,772.00,648.0
2024-04-24,09:30:00,DRY,1.20,12.33,11.0,772.00,733.7
2024-04-24,09:35:00,DRY,1.35,12.70,15.0,772.00,560.0
2024-04-24,09:40:00,DRY,1.60,12.63,17.0,772.00,653.7
2024-04-24,09:45:00,DRY,1.30,11.80,19.5,772.00,732.5
2024-04-24,09:50:00,DRY,1.00,12.07,20.7,772.00,704.7
2024-04-24,09:55:00,DRY,1.05,12.60,20.0,772.00,766.5
2024-04-24,10:00:00,DRY,1.03,12.67,19.3,772.33,745.7
2024-04-24,10:05:00,DRY,1.70,12.90,20.0,773.00,753.5
2024-04-24,10:10:00,DRY,1.00,12.50,19.5,773.00,765.0
2024-04-24,10:15:00,DRY,2.40,12.70,24.0,772.50,789.5
2024-04-24,10:20:00,DRY,2.37,12.10,26.0,773.00,798.0
2024-04-24,10:25:00,DRY,1.10,11.50,29.5,773.00,798.0
2024-04-24,10:30:00,DRY,0.37,12.07,24.3,773.00,798.0
2024-04-24,10:35:00,DRY,1.45,12.35,29.0,773.00,798.0
2024-04-24,10:40:00,DRY,1.77,12.43,34.0,773.00,798.0
2024-04-24,10:45:00,DRY,1.85,11.65,36.5,773.00,798.0
2024-04-24,10:50:00,DRY,2.07,11.77,41.3,773.00,798.0
2024-04-24,10:55:00,DRY,2.30,12.05,32.5,773.00,798.0
2024-04-24,11:00:00,DRY,1.00,12.17,45.7,773.00,798.0
2024-04-24,11:05:00,DRY,2.00,12.05,52.0,773.00,798.0
2024-04-24,11:10:00,DRY,1.93,12.30,53.7,773.00,798.0
2024-04-24,11:15:00,DRY,2.25,11.95,56.0,773.00,798.0
2024-04-24,11:20:00,DRY,0.97,11.93,57.3,773.00,798.0
2024-04-24,11:25:00,DRY,1.80,12.35,58.5,773.00,798.0
2024-04-24,11:30:00,DRY,1.53,12.10,62.3,773.00,798.0
2024-04-24,11:35:00,DRY,2.25,12.20,63.0,773.00,798.0
2024-04-24,11:40:00,DRY,1.43,12.20,67.0,773.00,798.0
2024-04-24,11:45:00,DRY,2.05,12.40,66.5,773.00,798.0
2024-04-24,11:50:00,DRY,2.37,12.20,70.3,773.00,798.0
2024-04-24,11:55:00,DRY,1.10,12.20,71.5,773.00,798.0
2024-04-24,12:00:00,DRY,2.63,12.03,73.7,773.00,791.3
2024-04-24,12:05:00,DRY,1.95,12.10,75.5,773.00,798.0
2024-04-24,12:10:00,DRY,3.00,12.10,74.0,773.00,798.0
2024-04-24,12:15:00,DRY,1.90,11.90,73.0,773.00,798.0
2024-04-24,12:20:00,DRY,2.60,11.77,70.3,773.00,798.0
2024-04-24,12:25:00,DRY,1.75,12.30,72.0,773.00,798.0
2024-04-24,12:30:00,DRY,2.17,12.67,75.0,773.00,798.0
2024-04-24,12:35:00,DRY,2.30,13.90,71.0,773.00,798.0
2024-04-24,12:40:00,DRY,1.53,12.63,79.0,773.00,798.0
2024-04-24,12:45:00,DRY,2.10,12.70,79.5,773.00,798.0
2024-04-24,12:50:00,DRY,2.30,12.55,82.0,773.00,798.0
2024-04-24,12:55:00,DRY,2.10,13.20,77.0,773.00,484.0
2024-04-24,13:00:00,DRY,2.10,11.50,87.0,773.00,549.0
2024-04-24,13:05:00,DRY,1.60,11.50,88.5,773.00,677.0
2024-04-24,13:10:00,DRY,1.37,12.57,83.3,773.00,798.0
2024-04-24,13:15:00,DRY,1.35,12.70,81.0,772.00,798.0
2024-04-24,13:20:00,DRY,2.10,12.83,79.7,772.00,662.0
2024-04-24,13:25:00,DRY,1.75,13.30,77.0,772.00,798.0
2024-04-24,13:30:00,DRY,1.75,13.20,78.5,772.00,798.0
2024-04-24,13:35:00,DRY,2.80,13.70,75.0,772.00,798.0
2024-04-24,13:40:00,DRY,1.50,13.20,79.0,772.00,798.0
2024-04-24,13:45:00,DRY,0.85,12.85,82.5,772.00,798.0
2024-04-24,13:50:00,DRY,1.50,13.50,78.7,772.00,798.0
2024-04-24,13:55:00,DRY,1.35,13.35,79.0,772.00,798.0
2024-04-24,14:00:00,DRY,1.47,13.43,79.0,772.00,681.3
2024-04-24,14:05:00,DRY,1.95,13.40,79.0,772.00,796.5
2024-04-24,14:10:00,DRY,2.35,13.45,79.0,772.00,662.0
2024-04-24,14:15:00,DRY,2.00,12.70,83.5,772.00,798.0
2024-04-24,14:20:00,DRY,2.70,13.90,80.0,772.00,625.0
2024-04-24,14:25:00,DRY,1.50,12.05,87.0,772.00,381.5
2024-04-24,14:30:00,DRY,2.10,11.63,91.0,772.00,414.3
2024-04-24,14:35:00,DRY,2.35,11.05,93.0,772.00,371.5
2024-04-24,14:40:00,DRY,1.23,10.93,91.7,772.00,684.7
2024-04-24,14:45:00,DRY,2.35,11.40,89.0,772.00,645.5
2024-04-24,14:50:00,DRY,1.80,11.27,84.3,772.00,761.0
2024-04-24,14:55:00,DRY,3.00,11.30,78.0,772.00,798.0
2024-04-24,15:00:00,DRY,2.07,13.23,78.7,772.00,666.0
2024-04-24,15:05:00,DRY,1.50,12.30,82.0,772.00,661.0
2024-04-24,15:10:00,DRY,2.90,11.63,81.7,772.00,691.0
2024-04-24,15:15:00,DRY,3.65,11.60,85.0,772.00,638.0
2024-04-24,15:20:00,DRY,2.00,11.47,88.7,772.00,675.7
2024-04-24,15:25:00,DRY,2.40,11.95,86.5,772.00,798.0
2024-04-24,15:30:00,DRY,1.07,12.13,85.7,772.00,466.0
2024-04-24,15:35:00,DRY,1.40,11.80,88.5,772.00,591.5
2024-04-24,15:40:00,DRY,2.23,12.53,84.3,772.00,589.7
2024-04-24,15:45:00,DRY,2.35,11.75,90.0,772.00,303.0
2024-04-24,15:50:00,DRY,1.43,11.13,90.7,772.00,725.7
2024-04-24,15:55:00,DRY,1.45,12.10,89.0,772.00,728.0
2024-04-24,16:00:00,DRY,0.67,12.70,82.3,772.00,788.7
2024-04-24,16:05:00,DRY,0.70,13.90,70.5,772.00,777.5
2024-04-24,16:10:00,DRY,2.50,14.67,63.3,772.00,762.0
2024-04-24,16:15:00,DRY,0.85,14.30,72.0,772.00,742.5
2024-04-24,16:20:00,DRY,1.40,14.10,73.5,772.00,726.5
2024-04-24,16:25:00,DRY,1.50,13.70,79.5,772.00,714.0
2024-04-24,16:30:00,DRY,1.13,12.77,81.7,772.00,693.7
2024-04-24,16:35:00,DRY,1.60,13.85,59.0,772.00,675.0
2024-04-24,16:40:00,DRY,1.60,13.80,69.0,772.00,658.0
2024-04-24,16:45:00,DRY,1.70,13.85,45.5,771.50,640.5
2024-04-24,16:50:00,DRY,1.70,13.55,68.0,772.00,622.5
2024-04-24,16:55:00,DRY,1.20,13.35,67.5,771.50,602.0
2024-04-24,17:00:00,DRY,1.90,13.87,72.0,771.00,581.0
2024-04-24,17:05:00,DRY,1.25,13.65,58.0,771.00,562.5
2024-04-24,17:10:00,DRY,2.37,14.43,56.0,771.00,542.3
2024-04-24,17:15:00,DRY,1.65,13.90,64.0,771.00,521.0
2024-04-24,17:20:00,DRY,1.90,13.97,61.7,771.00,501.0
2024-04-24,17:25:00,DRY,2.20,13.65,55.5,771.00,482.0
2024-04-24,17:30:00,DRY,1.50,13.73,43.3,771.00,462.3
2024-04-24,17:35:00,DRY,1.35,14.15,47.0,771.00,441.0
2024-04-24,17:40:00,DRY,1.87,14.57,43.3,771.00,421.3
2024-04-24,17:45:00,DRY,1.95,14.45,42.5,771.00,401.5
2024-04-24,17:50:00,DRY,1.73,13.63,43.3,771.00,378.7
2024-04-24,17:55:00,DRY,1.90,13.20,39.0,771.00,358.0
2024-04-24,18:00:00,DRY,1.67,12.90,40.7,771.33,337.7
2024-04-24,18:05:00,DRY,1.00,13.05,36.0,771.50,317.0
2024-04-24,18:10:00,DRY,0.73,12.97,37.7,771.33,295.7
2024-04-24,18:15:00,DRY,0.80,13.50,37.5,772.00,275.5
2024-04-24,18:20:00,DRY,1.20,13.93,34.7,771.67,253.0
2024-04-24,18:25:00,DRY,1.60,13.85,35.0,772.00,234.0
2024-04-24,18:30:00,DRY,0.80,13.50,41.3,771.67,212.7
2024-04-24,18:35:00,DRY,1.30,13.70,37.0,772.00,197.0
2024-04-24,18:40:00,DRY,0.75,13.45,46.5,772.00,176.5
2024-04-24,18:45:00,DRY,1.10,13.60,55.0,772.00,156.0
2024-04-24,18:50:00,DRY,0.73,12.97,59.7,772.00,26.0
2024-04-24,18:55:00,DRY,1.40,12.60,56.0,772.00,25.5
2024-04-24,19:00:00,DRY,0.90,12.13,62.7,772.00,24.0
2024-04-24,19:05:00,DRY,1.20,12.05,56.5,772.00,22.5
2024-04-24,19:10:00,DRY,0.93,12.33,55.0,772.00,20.3
2024-04-24,19:15:00,DRY,0.40,12.25,60.0,772.00,16.5
2024-04-24,19:20:00,DRY,0.97,12.33,53.7,772.00,14.7
2024-04-24,19:25:00,DRY,0.45,12.45,54.0,772.00,10.5
2024-04-24,19:30:00,DRY,0.77,12.47,52.7,772.00,7.7
2024-04-24,19:35:00,DRY,0.70,12.50,51.0,772.00,4.0
2024-04-24,19:40:00,DRY,0.57,11.93,58.7,772.00,0.0
2024-04-24,19:45:00,DRY,0.75,11.40,58.0,772.00,0.0
2024-04-24,19:50:00,DRY,0.77,11.47,56.0,772.00,0.0
2024-04-24,19:55:00,DRY,0.90,11.50,59.0,772.00,0.0
2024-04-24,20:00:00,DRY,0.67,11.50,59.0,772.00,0.0
2024-04-24,20:05:00,DRY,1.10,11.45,63.5,772.00,0.0
2024-04-24,20:10:00,DRY,1.97,11.37,58.7,772.00,0.0
2024-04-24,20:15:00,DRY,0.90,11.50,51.0,772.00,0.0
2024-04-24,20:20:00,DRY,1.35,11.65,40.5,772.00,0.0
2024-04-24,20:25:00,DRY,0.95,11.95,29.0,772.00,0.0
2024-04-24,20:30:00,DRY,1.50,12.07,28.3,772.00,0.0
2024-04-24,20:35:00,DRY,1.95,12.15,39.5,772.00,0.0
2024-04-24,20:40:00,DRY,1.80,12.00,41.0,772.00,0.0
2024-04-24,20:45:00,DRY,2.20,12.00,39.5,772.00,0.0
2024-04-24,20:50:00,DRY,1.17,12.00,39.3,772.00,0.0
2024-04-24,20:55:00,DRY,1.00,12.00,36.0,772.00,0.0
2024-04-24,21:00:00,DRY,1.20,11.90,36.0,772.00,0.0
2024-04-24,21:05:00,DRY,0.30,11.90,32.0,772.00,0.0
2024-04-24,21:10:00,DRY,0.35,11.70,35.0,772.50,0.0
2024-04-24,21:15:00,DRY,0.85,11.25,40.5,773.00,0.0
2024-04-24,21:20:00,DRY,0.90,11.07,42.3,773.00,0.0
2024-04-24,21:25:00,DRY,1.10,10.95,44.0,773.00,0.0
2024-04-24,21:30:00,DRY,0.87,10.73,45.0,773.00,0.0
2024-04-24,21:35:00,DRY,0.55,10.65,45.0,773.00,0.0
2024-04-24,21:40:00,DRY,1.30,10.50,46.5,773.00,0.0
2024-04-24,21:45:00,DRY,1.00,10.50,46.0,773.00,0.0
2024-04-24,21:50:00,DRY,0.77,10.60,46.0,773.00,0.0
2024-04-24,21:55:00,DRY,2.05,10.65,45.5,773.00,0.0
2024-04-24,22:00:00,DRY,2.33,10.87,44.3,773.00,0.0
2024-04-24,22:05:00,DRY,2.60,10.90,43.0,773.00,0.0
2024-04-24,22:10:00,DRY,1.77,11.00,44.0,773.00,0.0
2024-04-24,22:15:00,DRY,1.15,11.00,40.5,773.00,0.0
2024-04-24,22:20:00,DRY,1.50,11.10,32.5,773.00,0.0
2024-04-24,22:25:00,DRY,2.20,11.25,30.5,773.00,0.0
2024-04-24,22:30:00,DRY,1.10,11.43,29.0,773.00,0.0
2024-04-24,22:35:00,DRY,3.00,11.30,40.0,773.00,0.0
2024-04-24,22:40:00,DRY,2.77,11.00,43.0,773.00,0.0
2024-04-24,22:45:00,DRY,2.00,10.90,41.0,773.00,0.0
2024-04-24,22:50:00,DRY,2.57,10.93,44.7,773.00,0.0
2024-04-24,22:55:00,DRY,3.00,10.80,47.5,773.00,0.0
2024-04-24,23:00:00,DRY,1.87,10.70,46.7,773.00,0.0
2024-04-24,23:05:00,DRY,2.70,10.70,44.0,773.00,0.0
2024-04-24,23:10:00,DRY,1.97,10.80,34.7,773.00,0.0
2024-04-24,23:15:00,DRY,1.50,11.15,28.0,773.00,0.0
2024-04-24,23:20:00,DRY,2.00,11.30,29.5,773.00,0.0
2024-04-24,23:25:00,DRY,1.60,11.20,34.5,773.00,0.0
2024-04-24,23:30:00,DRY,1.15,10.80,43.5,773.00,0.0
2024-04-24,23:35:00,DRY,1.10,10.55,44.5,773.00,0.0
2024-04-24,23:40:00,DRY,0.87,10.30,44.3,773.00,0.0
2024-04-24,23:45:00,DRY,1.45,10.05,43.5,773.00,0.0
2024-04-24,23:50:00,DRY,1.03,10.00,40.7,773.00,0.0
2024-04-24,23:55:00,DRY,1.30,9.95,36.0,773.00,0.0
2024-04-25,00:00:00,DRY,0.83,9.97,28.7,773.00,0.0
2024-04-25,00:05:00,DRY,1.20,9.75,27.5,773.00,0.0
2024-04-25,00:10:00,DRY,0.70,9.67,22.7,773.00,0.0
2024-04-25,00:15:00,DRY,1.45,9.70,23.5,773.00,0.0
2024-04-25,00:20:00,DRY,0.97,9.70,27.7,773.00,0.0
2024-04-25,00:25:00,DRY,1.00,9.70,26.5,773.00,0.0
2024-04-25,00:30:00,DRY,0.80,9.77,32.3,773.00,0.0
2024-04-25,00:35:00,DRY,1.35,9.70,38.0,772.50,0.0
2024-04-25,00:40:00,DRY,1.27,9.83,40.0,772.00,0.0